This is the latest recevied weather packets stored in our database for station/object KQ4NAL. If no packets are shown the sender has not sent any weather packets the latest 10 day(s).
| Time | Temp. | Humidity | Pressure | Rain* | Wind** | Luminosity | Snow |
|---|---|---|---|---|---|---|---|
| 1777612742 | 2.78° C | 97% | 1016.2 hPa | 0 mm | - | 0 W/m² | - |
| 1777612438 | 3.33° C | 97% | 1016.1 hPa | 0 mm | - | 0 W/m² | - |
| 1777612133 | 3.33° C | 97% | 1016 hPa | 0 mm | - | 0 W/m² | - |
| 1777611829 | 3.33° C | 97% | 1016.2 hPa | 0 mm | - | 0 W/m² | - |
| 1777611525 | 3.89° C | 97% | 1015.9 hPa | 0 mm | - | 0 W/m² | - |
| 1777611222 | 3.89° C | 97% | 1016 hPa | 0 mm | - | 0 W/m² | - |
| 1777610919 | 3.33° C | 97% | 1016 hPa | 0 mm | - | 0 W/m² | - |
| 1777610614 | 3.33° C | 97% | 1015.8 hPa | 0 mm | - | 0 W/m² | - |
| 1777610312 | 3.89° C | 97% | 1015.7 hPa | 0 mm | - | 0 W/m² | - |
| 1777610010 | 3.33° C | 97% | 1016.1 hPa | 0 mm | - | 0 W/m² | - |
| 1777609706 | 3.89° C | 96% | 1015.9 hPa | 0 mm | - | 0 W/m² | - |
| 1777609403 | 3.89° C | 96% | 1016.3 hPa | 0 mm | - | 0 W/m² | - |
| 1777609101 | 3.89° C | 96% | 1016.2 hPa | 0 mm | - | 0 W/m² | - |
| 1777608798 | 3.89° C | 96% | 1016.5 hPa | 0 mm | - | 0 W/m² | - |
| 1777608495 | 3.89° C | 95% | 1016.5 hPa | 0 mm | - | 0 W/m² | - |
| 1777608193 | 3.89° C | 95% | 1016.5 hPa | 0 mm | - | 0 W/m² | - |
| 1777607889 | 4.44° C | 95% | 1016.5 hPa | 0 mm | - | 0 W/m² | - |
| 1777607585 | 4.44° C | 95% | 1016.7 hPa | 0 mm | - | 0 W/m² | - |
| 1777607282 | 4.44° C | 95% | 1016.7 hPa | 0 mm | - | 0 W/m² | - |
| 1777606977 | 4.44° C | 95% | 1016.8 hPa | 0 mm | - | 0 W/m² | - |
| 1777606673 | 4.44° C | 94% | 1016.8 hPa | 0 mm | - | 0 W/m² | - |
| 1777606369 | 4.44° C | 94% | 1016.9 hPa | 0 mm | - | 0 W/m² | - |
| 1777606064 | 3.89° C | 94% | 1016.9 hPa | 0 mm | - | 0 W/m² | - |
| 1777605760 | 4.44° C | 93% | 1017 hPa | 0 mm | - | 0 W/m² | - |
| 1777605458 | 5° C | 93% | 1017 hPa | 0 mm | - | 0 W/m² | - |
* Rain latest hour (hover to see other rain measurements)
** Current wind speed in m/s (hover to see current wind gust speed)